AQI (29)

Current Conditions for Foresthill, CA. Clear skies, Dry   
Visibility: 10 miles
Foresthill Advisory text: No Warning

  Summary / Temperature 

Current Temperature
49.3°F
9.6°C
(24/hr Ago)
42.8°F
(Apparent temp)
45.2°F
Cool
Wind Chill Graphs
49.4°F 

49.3°F/ 9.6°C
 --- Virtual Temp: 50.7°F ---

 Temp Rate:

 24/hr Difference:

 Avg Running Temp:

 Todays High:

 Todays Low:

 Y-days High:

 Y-days Low:

 Todays WChill:

 Y-days WChill:

 Evapotranspiration:

-0.3°F/hr 

+6.5°F

49.9°F

50.8°F 5:07am

46.4°F 12:00am

58.2°F 1:15pm

42.4°F 5:17am

40.2°F 12:54am

35.2°F 5:45am

0.006 in

115' Above Ground

 Temperature:

 6'AGL VRS 115'AGL:

 Avg Running Temp:

 Humidity:

 Todays High:

 Todays Low:

 Y-days High:

 Y-days Low:

59.0°F 

+9.7°F

58.4°F

28% 

59.0°F 2:22am

53.0°F 12:32am

60.0°F 12:54pm

46.0°F 5:56am

Temp & Humidity Graphs

  Wind 

Wind Speed

 Calm

Gusting to

 3.0 mph

Wind from NNE

25°  NNE

Calm

 Avg speed:

 Wind Run:

 Peak Gust:

  1.0 mph 

14.0 miles

  16.0 mph 12:51am

  Almanac  

Moon age: 28 days,3 hours,39 minutes,2%

Waning Crescent
1%
Illuminated
28 days in cycle

 Moonrise:

 Moonset:

 Sunrise:

 Sunset:

 Solar Noon:

6:11am

4:55pm

7:01am

5:28pm

12:17pm

2min 10s more daylight tomorrow 

  Solar Radiation 

(Current Solar)
  No Sun Light
(Todays High)
 None@12:00am

Rain

 Rain Today:

 Rain Rate (/hr):

 Rain last hour:

 Rain Yesterday:

 This Month:

 Season Total:

4 Days Since Last Rain Day

0.00 in

0.000 in

0.00 in

0.00 in

0.08 in

31.55 in

Updated Time

Updated: 2/7/16  6:46am

(Updated  sec ago)

Humidity & Barometer

 Humidity:

 Wetbulb:

 Dew Point:

 Barometer:

52% 

42.6°F 

32.4°F 

30.340 inHg 

 Baro Trend:  Steady 
Northern Calif
Preparedness
Fire 
Level 

    UV Index  

(Current UV)
0.0  None
(Todays High) @ 12:00am
0.0   None

Weather Underground 5 day Forecast

Sun Mon Tue Wed Thu
Partly Cloudy Clear Clear Mostly Cloudy Mostly Cloudy
Partly Cloudy Clear Clear Mostly Cloudy Mostly Cloudy
71° 70° 69° 68° 68°
48° 48° 48° 48° 49°

Foresthill Probe 2 Stats  
Foresthill Probe 2: is located on Thomas Street
at 3000 feet. The main Foresthill Weather site
is located on Melody ln at the 2860 foot elevation

Calm
48.1°F
8.9°C
Temp Rate:
-0.5°F
Calm
Gusting to
1.0 mph
(Humidity)
49%
Wind from E
98°  E
Updated: 07/02/16 - 06:44:53
 Todays High: 50.0°F 03:52
 Todays Low: 45.3°F 00:24
 Rain Today: 0.00 in
 Season Total: 32.28 in

Foresthill Wx: Monthly,Yearly, Highs and Lows 

Foresthill  
This Weather Data is coming from the main Foresthill
Weather site located on Melody ln at the 2860 foot
elevation
Not Foresthill Probe 2
Weather Data
Month
  High
Month
  Low
Year
High
Year
Low
Temp 58.2°F
2/6/16
28.4°F
2/1/16
58.2°F
1/21/16
28.4°F
2/1/16
Humidity 97%
2/4/16
31%
2/6/16
100%
1/6/16
31%
2/6/16
Heat Index 58.9°F
2/6/16
33.3°F
2/1/16
60.1°F
1/21/16
33.3°F
2/1/16
Wind Chill 58.2°F
2/6/16
15.8°F
2/1/16
58.2°F
1/21/16
15.8°F
2/1/16
Wind Gust 22 mph
2/3/16
0 mph
2/1/16
43 mph
1/18/16
0 mph
1/1/16
Barometer 30.56 in
2/3/16
29.97 in
2/1/16
30.56 in
2/3/16
29.69 in
1/5/16
ET 0.09 in
2/6/16
0.00 in
2/1/16
0.09 in
2/6/16
0.00 in
1/1/16
Dew Point 44.1°F
2/6/16
23.3°F
2/1/16
50.9°F
1/29/16
19.9°F
1/1/16
Infrared Satellite Regional Radar Satellite Imagery Sacramento,CA.  (click to enlarge)
NWS Weather Forecast - Outlook: Today and Tonight
Today

Today: Sunny, with a high near 65. East northeast wind 8 to 15 mph, with gusts as high as 21 mph.
Sunny

Hi 65 °F
NWS forecast: Sunny, with a high near 65. East northeast wind 8 to 15 mph, with gusts as high as 21 mph.
Tonight

Tonight: Clear, with a low around 42. East wind 8 to 11 mph.
Clear

Lo 42 °F
NWS forecast: Clear, with a low around 42. East wind 8 to 11 mph.
NWS Weather Forecast - Summary
Updated: Sunday, February 7, 2016 - 5:00am (PST)
YR.NO 10 Day Weather forecast
Last update: 02/06/2016 @ 23:36
Next update: 02/07/2016 @ 12:00
Provided by: 22
      Temperature Precipitation Pressure Wind  
Today
02/07/2016
10:00 13:00 59°F   30.25 inHg Light air from northeast 2 mph
  13:00 19:00 66°F   30.20 inHg Light breeze from northeast 6 mph
  19:00 01:00 52°F   30.20 inHg Light air from northeast 1 mph
    (Click to enlarge)
meteogram

    Forecast for next 9 days

      Temperature Precip Pressure Wind  
Monday
02/08/2016
01:00 07:00 45°F   30.24 inHg Light breeze from east-northeast 7 mph
  07:00 13:00 48°F   30.23 inHg Gentle breeze from east-northeast 8 mph
  13:00 19:00 70°F   30.18 inHg Light air from south-southeast 2 mph
  19:00 01:00 50°F   30.20 inHg Light breeze from east-northeast 6 mph
      Temperature Precip Pressure Wind  
Tuesday
02/09/2016
01:00 07:00 43°F   30.19 inHg Light breeze from east-northeast 7 mph
  07:00 13:00 39°F   30.19 inHg Light breeze from east-northeast 6 mph
  10:00 16:00 59°F   30.23 inHg Light air from east 1 mph
  16:00 22:00 64°F   30.15 inHg Light air from west-southwest 3 mph
  22:00 04:00 45°F   30.19 inHg Light breeze from east-northeast 4 mph
      Temperature Precip Pressure Wind  
Wednesday
02/10/2016
04:00 10:00 41°F   30.17 inHg Light breeze from east-northeast 5 mph
  10:00 16:00 61°F   30.22 inHg Light air from east-northeast 1 mph
  16:00 22:00 63°F   30.17 inHg Light breeze from west-southwest 4 mph
  22:00 04:00 43°F   30.21 inHg Light air from east-northeast 2 mph
      Temperature Precip Pressure Wind  
Thursday
02/11/2016
04:00 10:00 41°F   30.13 inHg Light breeze from east-northeast 5 mph
  10:00 16:00 59°F   30.15 inHg Light air from east-northeast 1 mph
  16:00 22:00 63°F   30.08 inHg Light air from southwest 2 mph
  22:00 04:00 43°F   30.11 inHg Light breeze from east-northeast 4 mph
      Temperature Precip Pressure Wind  
Friday
02/12/2016
04:00 10:00 43°F   30.09 inHg Light breeze from east-northeast 5 mph
  10:00 16:00 59°F   30.13 inHg Calm from east-northeast 0 mph
  16:00 22:00 61°F   30.07 inHg Light breeze from west-southwest 4 mph
  22:00 04:00 43°F   30.12 inHg Light air from east-northeast 2 mph
      Temperature Precip Pressure Wind  
Saturday
02/13/2016
04:00 10:00 39°F   30.10 inHg Light air from east-northeast 2 mph
  10:00 16:00 55°F   30.12 inHg Light air from west-northwest 2 mph
  16:00 22:00 55°F   30.05 inHg Light breeze from west 5 mph
  22:00 04:00 45°F   30.12 inHg Light air from east-northeast 2 mph
      Temperature Precip Pressure Wind  
Sunday
02/14/2016
04:00 10:00 37°F   30.10 inHg Light breeze from east-northeast 7 mph
  10:00 16:00 54°F   30.14 inHg Light breeze from northeast 7 mph
  16:00 22:00 59°F   30.09 inHg Light air from north-northeast 3 mph
  22:00 04:00 43°F   30.14 inHg Light breeze from northeast 7 mph
      Temperature Precip Pressure Wind  
Monday
02/15/2016
04:00 10:00 43°F   30.12 inHg Light breeze from east-northeast 6 mph
  10:00 16:00 57°F   30.18 inHg Light air from southwest 1 mph
  16:00 22:00 59°F   30.14 inHg Light air from west-southwest 3 mph
  22:00 04:00 43°F   30.17 inHg Light breeze from east-northeast 5 mph
      Temperature Precip Pressure Wind  
Tuesday
02/16/2016
04:00 10:00 39°F   30.15 inHg Light breeze from east-northeast 5 mph
  10:00 16:00 61°F   30.15 inHg Light air from west 1 mph

Weather History For Sunday, February 7, 2016


On this Day - In Weather History ...
Data courtesy of weatherforyou.com
powered by Cumulus v1.9.3 (1059)
Ambient Weather VWS v14.00
Top Contact Website Map Copyright © 2007 - 2016 Foresthillweather.com Never base important decisions on this or any weather information obtained from the Internet